Year,Month,Day,Hour,Minute,Value (Times are PST for temperature in C)
2018,08,11,00,00,16.40
2018,08,11,00,01,16.50
2018,08,11,00,02,16.40
2018,08,11,00,03,16.30
2018,08,11,00,04,16.50
2018,08,11,00,05,16.80
2018,08,11,00,06,16.90
2018,08,11,00,07,16.70
2018,08,11,00,08,16.50
2018,08,11,00,09,16.40
2018,08,11,00,10,16.30
2018,08,11,00,11,16.50
2018,08,11,00,12,16.50
2018,08,11,00,13,16.40
2018,08,11,00,14,16.30
2018,08,11,00,15,16.30
2018,08,11,00,16,16.60
2018,08,11,00,17,16.50
2018,08,11,00,18,16.40
2018,08,11,00,19,16.50
2018,08,11,00,20,16.90
2018,08,11,00,21,16.80
2018,08,11,00,22,16.50
2018,08,11,00,23,16.10
2018,08,11,00,24,15.80
2018,08,11,00,25,16.10
2018,08,11,00,26,16.30
2018,08,11,00,27,16.50
2018,08,11,00,28,16.50
2018,08,11,00,29,16.40
2018,08,11,00,30,16.40
2018,08,11,00,31,16.80
2018,08,11,00,32,17.10
2018,08,11,00,33,17.00
2018,08,11,00,34,16.80
2018,08,11,00,35,16.80
2018,08,11,00,36,16.80
2018,08,11,00,37,16.80
2018,08,11,00,38,16.70
2018,08,11,00,39,17.00
2018,08,11,00,40,17.20
2018,08,11,00,41,17.10
2018,08,11,00,42,16.90
2018,08,11,00,43,17.00
2018,08,11,00,44,17.20
2018,08,11,00,45,17.00
2018,08,11,00,46,16.60
2018,08,11,00,47,16.70
2018,08,11,00,48,16.90
2018,08,11,00,49,16.80
2018,08,11,00,50,16.80
2018,08,11,00,51,16.70
2018,08,11,00,52,16.70
2018,08,11,00,53,16.70
2018,08,11,00,54,16.70
2018,08,11,00,55,16.80
2018,08,11,00,56,17.30
2018,08,11,00,57,17.50
2018,08,11,00,58,17.50
2018,08,11,00,59,17.10
2018,08,11,01,00,16.80
2018,08,11,01,01,17.20
2018,08,11,01,02,17.50
2018,08,11,01,03,17.40
2018,08,11,01,04,17.10
2018,08,11,01,05,16.70
2018,08,11,01,06,16.50
2018,08,11,01,07,17.00
2018,08,11,01,08,17.20
2018,08,11,01,09,17.10
2018,08,11,01,10,17.20
2018,08,11,01,11,16.90
2018,08,11,01,12,17.40
2018,08,11,01,13,17.70
2018,08,11,01,14,17.50
2018,08,11,01,15,16.90
2018,08,11,01,16,16.70
2018,08,11,01,17,17.00
2018,08,11,01,18,16.90
2018,08,11,01,19,17.20
2018,08,11,01,20,17.40
2018,08,11,01,21,17.50
2018,08,11,01,22,17.50
2018,08,11,01,23,17.10
2018,08,11,01,24,16.90
2018,08,11,01,25,17.00
2018,08,11,01,26,17.10
2018,08,11,01,27,17.10
2018,08,11,01,28,17.10
2018,08,11,01,29,17.20
2018,08,11,01,30,17.20
2018,08,11,01,31,17.30
2018,08,11,01,32,17.30
2018,08,11,01,33,17.20
2018,08,11,01,34,17.00
2018,08,11,01,35,16.90
2018,08,11,01,36,17.10
2018,08,11,01,37,17.20
2018,08,11,01,38,17.20
2018,08,11,01,39,17.10
2018,08,11,01,40,17.30
2018,08,11,01,41,17.40
2018,08,11,01,42,17.50
2018,08,11,01,43,17.60
2018,08,11,01,44,17.60
2018,08,11,01,45,17.50
2018,08,11,01,46,17.20
2018,08,11,01,47,16.90
2018,08,11,01,48,17.00
2018,08,11,01,49,17.20
2018,08,11,01,50,17.30
2018,08,11,01,51,17.00
2018,08,11,01,52,16.70
2018,08,11,01,53,17.00
2018,08,11,01,54,17.40
2018,08,11,01,55,17.40
2018,08,11,01,56,17.20
2018,08,11,01,57,17.20
2018,08,11,01,58,17.60
2018,08,11,01,59,17.80
2018,08,11,02,00,17.70
2018,08,11,02,01,17.70
2018,08,11,02,02,17.60
2018,08,11,02,03,17.50
2018,08,11,02,04,17.50
2018,08,11,02,05,17.60
2018,08,11,02,06,17.60
2018,08,11,02,07,17.70
2018,08,11,02,08,17.60
2018,08,11,02,09,17.50
2018,08,11,02,10,17.40
2018,08,11,02,11,17.40
2018,08,11,02,12,17.40
2018,08,11,02,13,17.40
2018,08,11,02,14,17.40
2018,08,11,02,15,17.40
2018,08,11,02,16,17.30
2018,08,11,02,17,17.10
2018,08,11,02,18,16.80
2018,08,11,02,19,16.70
2018,08,11,02,20,16.60
2018,08,11,02,21,16.50
2018,08,11,02,22,16.30
2018,08,11,02,23,15.70
2018,08,11,02,24,15.20
2018,08,11,02,25,15.10
2018,08,11,02,26,15.10
2018,08,11,02,27,15.20
2018,08,11,02,28,15.40
2018,08,11,02,29,15.60
2018,08,11,02,30,15.70
2018,08,11,02,31,15.90
2018,08,11,02,32,16.00
2018,08,11,02,33,16.00
2018,08,11,02,34,16.00
2018,08,11,02,35,16.00
2018,08,11,02,36,15.70
2018,08,11,02,37,15.30
2018,08,11,02,38,15.00
2018,08,11,02,39,15.00
2018,08,11,02,40,15.00
2018,08,11,02,41,15.20
2018,08,11,02,42,15.30
2018,08,11,02,43,15.60
2018,08,11,02,44,15.80
2018,08,11,02,45,15.90
2018,08,11,02,46,15.90
2018,08,11,02,47,16.10
2018,08,11,02,48,16.10
2018,08,11,02,49,16.10
2018,08,11,02,50,16.10
2018,08,11,02,51,16.00
2018,08,11,02,52,16.10
2018,08,11,02,53,16.20
2018,08,11,02,54,16.30
2018,08,11,02,55,16.30
2018,08,11,02,56,16.30
2018,08,11,02,57,16.20
2018,08,11,02,58,16.20
2018,08,11,02,59,16.10
2018,08,11,03,00,16.00
2018,08,11,03,01,15.90
2018,08,11,03,02,16.00
2018,08,11,03,03,15.90
2018,08,11,03,04,15.80
2018,08,11,03,05,15.80
2018,08,11,03,06,15.90
2018,08,11,03,07,16.10
2018,08,11,03,08,16.10
2018,08,11,03,09,16.20
2018,08,11,03,10,16.30
2018,08,11,03,11,16.30
2018,08,11,03,12,16.20
2018,08,11,03,13,16.50
2018,08,11,03,14,16.50
2018,08,11,03,15,16.30
2018,08,11,03,16,16.30
2018,08,11,03,17,16.30
2018,08,11,03,18,16.30
2018,08,11,03,19,16.30
2018,08,11,03,20,16.40
2018,08,11,03,21,16.70
2018,08,11,03,22,16.80
2018,08,11,03,23,16.70
2018,08,11,03,24,16.70
2018,08,11,03,25,16.60
2018,08,11,03,26,16.60
2018,08,11,03,27,16.60
2018,08,11,03,28,16.40
2018,08,11,03,29,16.50
2018,08,11,03,30,16.60
2018,08,11,03,31,16.70
2018,08,11,03,32,16.70
2018,08,11,03,33,16.90
2018,08,11,03,34,17.10
2018,08,11,03,35,17.20
2018,08,11,03,36,17.20
2018,08,11,03,37,17.20
2018,08,11,03,38,17.10
2018,08,11,03,39,17.20
2018,08,11,03,40,17.20
2018,08,11,03,41,17.10
2018,08,11,03,42,17.10
2018,08,11,03,43,17.20
2018,08,11,03,44,17.30
2018,08,11,03,45,17.20
2018,08,11,03,46,17.20
2018,08,11,03,47,17.30
2018,08,11,03,48,17.20
2018,08,11,03,49,17.10
2018,08,11,03,50,17.00
2018,08,11,03,51,17.00
2018,08,11,03,52,17.00
2018,08,11,03,53,16.90
2018,08,11,03,54,16.90
2018,08,11,03,55,17.00
2018,08,11,03,56,17.10
2018,08,11,03,57,17.10
2018,08,11,03,58,17.20
2018,08,11,03,59,17.20
2018,08,11,04,00,17.20
2018,08,11,04,01,17.10
2018,08,11,04,02,17.10
2018,08,11,04,03,17.10
2018,08,11,04,04,17.30
2018,08,11,04,05,17.40
2018,08,11,04,06,17.20
2018,08,11,04,07,17.10
2018,08,11,04,08,17.10
2018,08,11,04,09,17.00
2018,08,11,04,10,17.00
2018,08,11,04,11,17.00
2018,08,11,04,12,17.00
2018,08,11,04,13,17.10
2018,08,11,04,14,17.00
2018,08,11,04,15,17.00
2018,08,11,04,16,16.90
2018,08,11,04,17,16.70
2018,08,11,04,18,16.60
2018,08,11,04,19,16.60
2018,08,11,04,20,16.60
2018,08,11,04,21,16.60
2018,08,11,04,22,16.50
2018,08,11,04,23,16.30
2018,08,11,04,24,16.10
2018,08,11,04,25,16.30
2018,08,11,04,26,16.50
2018,08,11,04,27,16.70
2018,08,11,04,28,16.70
2018,08,11,04,29,16.70
2018,08,11,04,30,16.80
2018,08,11,04,31,16.80
2018,08,11,04,32,16.70
2018,08,11,04,33,16.60
2018,08,11,04,34,16.60
2018,08,11,04,35,16.50
2018,08,11,04,36,16.50
2018,08,11,04,37,16.70
2018,08,11,04,38,16.90
2018,08,11,04,39,17.00
2018,08,11,04,40,17.00
2018,08,11,04,41,16.80
2018,08,11,04,42,16.60
2018,08,11,04,43,16.60
2018,08,11,04,44,16.60
2018,08,11,04,45,16.50
2018,08,11,04,46,16.30
2018,08,11,04,47,16.10
2018,08,11,04,48,16.00
2018,08,11,04,49,16.00
2018,08,11,04,50,16.10
2018,08,11,04,51,16.10
2018,08,11,04,52,16.10
2018,08,11,04,53,16.00
2018,08,11,04,54,15.90
2018,08,11,04,55,15.90
2018,08,11,04,56,15.90
2018,08,11,04,57,16.10
2018,08,11,04,58,16.40
2018,08,11,04,59,16.70
2018,08,11,05,00,16.80
2018,08,11,05,01,16.60
2018,08,11,05,02,16.30
2018,08,11,05,03,16.10
2018,08,11,05,04,15.90
2018,08,11,05,05,15.80
2018,08,11,05,06,15.90
2018,08,11,05,07,16.00
2018,08,11,05,08,16.10
2018,08,11,05,09,16.00
2018,08,11,05,10,16.00
2018,08,11,05,11,15.90
2018,08,11,05,12,15.90
2018,08,11,05,13,15.90
2018,08,11,05,14,15.80
2018,08,11,05,15,15.90
2018,08,11,05,16,16.10
2018,08,11,05,17,16.10
2018,08,11,05,18,16.10
2018,08,11,05,19,16.20
2018,08,11,05,20,16.40
2018,08,11,05,21,16.50
2018,08,11,05,22,16.50
2018,08,11,05,23,16.40
2018,08,11,05,24,16.50
2018,08,11,05,25,16.60
2018,08,11,05,26,16.50
2018,08,11,05,27,16.40
2018,08,11,05,28,16.30
2018,08,11,05,29,16.20
2018,08,11,05,30,16.30
2018,08,11,05,31,16.40
2018,08,11,05,32,16.40
2018,08,11,05,33,16.40
2018,08,11,05,34,16.30
2018,08,11,05,35,16.20
2018,08,11,05,36,15.80
2018,08,11,05,37,15.60
2018,08,11,05,38,15.60
2018,08,11,05,39,15.60
2018,08,11,05,40,15.70
2018,08,11,05,41,15.70
2018,08,11,05,42,15.70
2018,08,11,05,43,15.60
2018,08,11,05,44,15.60
2018,08,11,05,45,15.50
2018,08,11,05,46,15.60
2018,08,11,05,47,15.70
2018,08,11,05,48,15.70
2018,08,11,05,49,15.80
2018,08,11,05,50,15.80
2018,08,11,05,51,15.80
2018,08,11,05,52,15.70
2018,08,11,05,53,15.70
2018,08,11,05,54,15.80
2018,08,11,05,55,15.80
2018,08,11,05,56,15.70
2018,08,11,05,57,15.70
2018,08,11,05,58,15.70
2018,08,11,05,59,15.70
2018,08,11,06,00,15.80
2018,08,11,06,01,15.80
2018,08,11,06,02,15.90
2018,08,11,06,03,15.90
2018,08,11,06,04,16.00
2018,08,11,06,05,16.10
2018,08,11,06,06,16.10
2018,08,11,06,07,16.20
2018,08,11,06,08,16.20
2018,08,11,06,09,16.20
2018,08,11,06,10,16.20
2018,08,11,06,11,16.20
2018,08,11,06,12,16.40
2018,08,11,06,13,16.40
2018,08,11,06,14,16.40
2018,08,11,06,15,16.30
2018,08,11,06,16,16.20
2018,08,11,06,17,16.20
2018,08,11,06,18,16.20
2018,08,11,06,19,16.30
2018,08,11,06,20,16.30
2018,08,11,06,21,16.30
2018,08,11,06,22,16.30
2018,08,11,06,23,16.20
2018,08,11,06,24,16.10
2018,08,11,06,25,16.00
2018,08,11,06,26,15.90
2018,08,11,06,27,16.00
2018,08,11,06,28,15.90
2018,08,11,06,29,15.80
2018,08,11,06,30,15.80
2018,08,11,06,31,16.00
2018,08,11,06,32,16.10
2018,08,11,06,33,16.10
2018,08,11,06,34,16.00
2018,08,11,06,35,16.00
2018,08,11,06,36,15.90
2018,08,11,06,37,15.90
2018,08,11,06,38,16.00
2018,08,11,06,39,16.10
2018,08,11,06,40,16.10
2018,08,11,06,41,16.10
2018,08,11,06,42,16.00
2018,08,11,06,43,16.00
2018,08,11,06,44,15.90
2018,08,11,06,45,15.90
2018,08,11,06,46,15.90
2018,08,11,06,47,15.90
2018,08,11,06,48,16.00
2018,08,11,06,49,16.10
2018,08,11,06,50,16.20
2018,08,11,06,51,16.30
2018,08,11,06,52,16.40
2018,08,11,06,53,16.40
2018,08,11,06,54,16.30
2018,08,11,06,55,16.20
2018,08,11,06,56,16.10
2018,08,11,06,57,16.20
2018,08,11,06,58,16.30
2018,08,11,06,59,16.30
2018,08,11,07,00,16.30
2018,08,11,07,01,16.10
2018,08,11,07,02,16.00
2018,08,11,07,03,16.00
2018,08,11,07,04,16.10
2018,08,11,07,05,16.10
2018,08,11,07,06,16.10
2018,08,11,07,07,16.00
2018,08,11,07,08,15.80
2018,08,11,07,09,15.40
2018,08,11,07,10,15.10
2018,08,11,07,11,14.80
2018,08,11,07,12,14.70
2018,08,11,07,13,14.70
2018,08,11,07,14,14.70
2018,08,11,07,15,14.70
2018,08,11,07,16,14.80
2018,08,11,07,17,14.90
2018,08,11,07,18,14.90
2018,08,11,07,19,14.80
2018,08,11,07,20,14.60
2018,08,11,07,21,14.30
2018,08,11,07,22,13.90
2018,08,11,07,23,13.80
2018,08,11,07,24,13.90
2018,08,11,07,25,13.90
2018,08,11,07,26,13.90
2018,08,11,07,27,13.90
2018,08,11,07,28,13.90
2018,08,11,07,29,13.90
2018,08,11,07,30,13.80
2018,08,11,07,31,13.70
2018,08,11,07,32,13.60
2018,08,11,07,33,13.60
2018,08,11,07,34,13.70
2018,08,11,07,35,13.80
2018,08,11,07,36,13.80
2018,08,11,07,37,13.70
2018,08,11,07,38,13.60
2018,08,11,07,39,13.40
2018,08,11,07,40,13.30
2018,08,11,07,41,13.10
2018,08,11,07,42,13.00
2018,08,11,07,43,12.90
2018,08,11,07,44,12.90
2018,08,11,07,45,12.90
2018,08,11,07,46,12.90
2018,08,11,07,47,12.90
2018,08,11,07,48,12.90
2018,08,11,07,49,12.80
2018,08,11,07,50,12.80
2018,08,11,07,51,12.70
2018,08,11,07,52,12.70
2018,08,11,07,53,12.70
2018,08,11,07,54,12.70
2018,08,11,07,55,12.80
2018,08,11,07,56,12.90
2018,08,11,07,57,12.90
2018,08,11,07,58,13.00
2018,08,11,07,59,13.00
2018,08,11,08,00,13.10
2018,08,11,08,01,13.10
2018,08,11,08,02,13.10
2018,08,11,08,03,13.10
2018,08,11,08,04,13.10
2018,08,11,08,05,13.10
2018,08,11,08,06,13.10
2018,08,11,08,07,13.10
2018,08,11,08,08,13.20
2018,08,11,08,09,13.20
2018,08,11,08,10,13.20
2018,08,11,08,11,13.20
2018,08,11,08,12,13.30
2018,08,11,08,13,13.30
2018,08,11,08,14,13.30
2018,08,11,08,15,13.40
2018,08,11,08,16,13.40
2018,08,11,08,17,13.40
2018,08,11,08,18,13.50
2018,08,11,08,19,13.50
2018,08,11,08,20,13.50
2018,08,11,08,21,13.60
2018,08,11,08,22,13.60
2018,08,11,08,23,13.60
2018,08,11,08,24,13.50
2018,08,11,08,25,13.50
2018,08,11,08,26,13.40
2018,08,11,08,27,13.40
2018,08,11,08,28,13.40
2018,08,11,08,29,13.40
2018,08,11,08,30,13.30
2018,08,11,08,31,13.30
2018,08,11,08,32,13.30
2018,08,11,08,33,13.30
2018,08,11,08,34,13.30
2018,08,11,08,35,13.20
2018,08,11,08,36,13.20
2018,08,11,08,37,13.20
2018,08,11,08,38,13.20
2018,08,11,08,39,13.30
2018,08,11,08,40,13.30
2018,08,11,08,41,13.30
2018,08,11,08,42,13.30
2018,08,11,08,43,13.40
2018,08,11,08,44,13.50
2018,08,11,08,45,13.60
2018,08,11,08,46,13.60
2018,08,11,08,47,13.60
2018,08,11,08,48,13.60
2018,08,11,08,49,13.60
2018,08,11,08,50,13.60
2018,08,11,08,51,13.70
2018,08,11,08,52,13.70
2018,08,11,08,53,13.80
2018,08,11,08,54,13.90
2018,08,11,08,55,13.90
2018,08,11,08,56,14.00
2018,08,11,08,57,14.00
2018,08,11,08,58,14.00
2018,08,11,08,59,14.10
2018,08,11,09,00,14.10
2018,08,11,09,01,14.10
2018,08,11,09,02,14.20
2018,08,11,09,03,14.20
2018,08,11,09,04,14.20
2018,08,11,09,05,14.20
2018,08,11,09,06,14.20
2018,08,11,09,07,14.30
2018,08,11,09,08,14.30
2018,08,11,09,09,14.30
2018,08,11,09,10,14.30
2018,08,11,09,11,14.30
2018,08,11,09,12,14.20
2018,08,11,09,13,14.20
2018,08,11,09,14,14.20
2018,08,11,09,15,14.30
2018,08,11,09,16,14.30
2018,08,11,09,17,14.40
2018,08,11,09,18,14.40
2018,08,11,09,19,14.40
2018,08,11,09,20,14.40
2018,08,11,09,21,14.50
2018,08,11,09,22,14.50
2018,08,11,09,23,14.50
2018,08,11,09,24,14.60
2018,08,11,09,25,14.50
2018,08,11,09,26,14.30
2018,08,11,09,27,14.10
2018,08,11,09,28,13.90
2018,08,11,09,29,13.70
2018,08,11,09,30,13.60
2018,08,11,09,31,13.60
2018,08,11,09,32,13.60
2018,08,11,09,33,13.70
2018,08,11,09,34,13.70
2018,08,11,09,35,13.70
2018,08,11,09,36,13.70
2018,08,11,09,37,13.70
2018,08,11,09,38,13.70
2018,08,11,09,39,13.90
2018,08,11,09,40,13.90
2018,08,11,09,41,14.10
2018,08,11,09,42,14.10
2018,08,11,09,43,14.10
2018,08,11,09,44,14.20
2018,08,11,09,45,14.20
2018,08,11,09,46,14.20
2018,08,11,09,47,14.00
2018,08,11,09,48,13.80
2018,08,11,09,49,13.80
2018,08,11,09,50,14.00
2018,08,11,09,51,14.20
2018,08,11,09,52,14.30
2018,08,11,09,53,14.30
2018,08,11,09,54,14.40
2018,08,11,09,55,14.50
2018,08,11,09,56,14.60
2018,08,11,09,57,14.70
2018,08,11,09,58,14.80
2018,08,11,09,59,14.90
2018,08,11,10,00,14.90
2018,08,11,10,01,15.00
2018,08,11,10,02,15.00
2018,08,11,10,03,15.10
2018,08,11,10,04,15.20
2018,08,11,10,05,15.20
2018,08,11,10,06,15.20
2018,08,11,10,07,15.20
2018,08,11,10,08,15.30
2018,08,11,10,09,15.30
2018,08,11,10,10,15.30
2018,08,11,10,11,15.30
2018,08,11,10,12,15.30
2018,08,11,10,13,15.30
2018,08,11,10,14,15.40
2018,08,11,10,15,15.40
2018,08,11,10,16,15.50
2018,08,11,10,17,15.50
2018,08,11,10,18,15.60
2018,08,11,10,19,15.60
2018,08,11,10,20,15.60
2018,08,11,10,21,15.70
2018,08,11,10,22,15.70
2018,08,11,10,23,15.70
2018,08,11,10,24,15.80
2018,08,11,10,25,15.80
2018,08,11,10,26,15.90
2018,08,11,10,27,15.90
2018,08,11,10,28,16.00
2018,08,11,10,29,16.00
2018,08,11,10,30,16.00
2018,08,11,10,31,16.10
2018,08,11,10,32,16.10
2018,08,11,10,33,16.00
2018,08,11,10,34,16.00
2018,08,11,10,35,16.00
2018,08,11,10,36,16.10
2018,08,11,10,37,16.20
2018,08,11,10,38,16.20
2018,08,11,10,39,16.30
2018,08,11,10,40,16.30
2018,08,11,10,41,16.30
2018,08,11,10,42,16.30
2018,08,11,10,43,16.30
2018,08,11,10,44,16.30
2018,08,11,10,45,16.10
2018,08,11,10,46,15.80
2018,08,11,10,47,15.40
2018,08,11,10,48,15.20
2018,08,11,10,49,15.00
2018,08,11,10,50,14.80
2018,08,11,10,51,14.80
2018,08,11,10,52,14.70
2018,08,11,10,53,14.70
2018,08,11,10,54,14.70
2018,08,11,10,55,14.80
2018,08,11,10,56,15.00
2018,08,11,10,57,15.20
2018,08,11,10,58,15.30
2018,08,11,10,59,15.40
2018,08,11,11,00,15.60
2018,08,11,11,01,15.60
2018,08,11,11,02,15.70
2018,08,11,11,03,15.80
2018,08,11,11,04,15.70
2018,08,11,11,05,15.70
2018,08,11,11,06,15.70
2018,08,11,11,07,15.60
2018,08,11,11,08,15.40
2018,08,11,11,09,15.00
2018,08,11,11,10,14.60
2018,08,11,11,11,14.60
2018,08,11,11,12,14.80
2018,08,11,11,13,15.00
2018,08,11,11,14,15.20
2018,08,11,11,15,15.30
2018,08,11,11,16,15.50
2018,08,11,11,17,15.70
2018,08,11,11,18,15.80
2018,08,11,11,19,15.80
2018,08,11,11,20,15.90
2018,08,11,11,21,16.00
2018,08,11,11,22,16.10
2018,08,11,11,23,16.10
2018,08,11,11,24,16.20
2018,08,11,11,25,16.30
2018,08,11,11,26,16.30
2018,08,11,11,27,16.30
2018,08,11,11,28,16.30
2018,08,11,11,29,16.40
2018,08,11,11,30,16.40
2018,08,11,11,31,16.40
2018,08,11,11,32,16.50
2018,08,11,11,33,16.60
2018,08,11,11,34,16.60
2018,08,11,11,35,16.60
2018,08,11,11,36,16.60
2018,08,11,11,37,16.50
2018,08,11,11,38,16.50
2018,08,11,11,39,16.50
2018,08,11,11,40,16.60
2018,08,11,11,41,16.50
2018,08,11,11,42,16.50
2018,08,11,11,43,16.50
2018,08,11,11,44,16.50
2018,08,11,11,45,16.40
2018,08,11,11,46,16.40
2018,08,11,11,47,16.40
2018,08,11,11,48,16.40
2018,08,11,11,49,16.30
2018,08,11,11,50,16.30
2018,08,11,11,51,16.30
2018,08,11,11,52,16.20
2018,08,11,11,53,16.30
2018,08,11,11,54,16.30
2018,08,11,11,55,16.30
2018,08,11,11,56,16.40
2018,08,11,11,57,16.40
2018,08,11,11,58,16.40
2018,08,11,11,59,16.40
2018,08,11,12,00,16.30
2018,08,11,12,01,16.30
2018,08,11,12,02,16.30
2018,08,11,12,03,16.30
2018,08,11,12,04,16.20
2018,08,11,12,05,16.20
2018,08,11,12,06,16.20
2018,08,11,12,07,16.10
2018,08,11,12,08,16.00
2018,08,11,12,09,16.00
2018,08,11,12,10,16.00
2018,08,11,12,11,16.00
2018,08,11,12,12,15.90
2018,08,11,12,13,15.90
2018,08,11,12,14,15.80
2018,08,11,12,15,15.70
2018,08,11,12,16,15.60
2018,08,11,12,17,15.60
2018,08,11,12,18,15.60
2018,08,11,12,19,15.50
2018,08,11,12,20,15.40
2018,08,11,12,21,15.30
2018,08,11,12,22,15.20
2018,08,11,12,23,15.10
2018,08,11,12,24,15.10
2018,08,11,12,25,15.10
2018,08,11,12,26,15.10
2018,08,11,12,27,15.10
2018,08,11,12,28,15.10
2018,08,11,12,29,15.10
2018,08,11,12,30,15.10
2018,08,11,12,31,15.10
2018,08,11,12,32,15.00
2018,08,11,12,33,15.10
2018,08,11,12,34,15.00
2018,08,11,12,35,14.90
2018,08,11,12,36,14.90
2018,08,11,12,37,14.80
2018,08,11,12,38,14.80
2018,08,11,12,39,14.70
2018,08,11,12,40,14.60
2018,08,11,12,41,14.50
2018,08,11,12,42,14.50
2018,08,11,12,43,14.50
2018,08,11,12,44,14.50
2018,08,11,12,45,14.40
2018,08,11,12,46,14.40
2018,08,11,12,47,14.30
2018,08,11,12,48,14.30
2018,08,11,12,49,14.30
2018,08,11,12,50,14.30
2018,08,11,12,51,14.20
2018,08,11,12,52,14.20
2018,08,11,12,53,14.20
2018,08,11,12,54,14.10
2018,08,11,12,55,14.10
2018,08,11,12,56,14.00
2018,08,11,12,57,14.00
2018,08,11,12,58,14.00
2018,08,11,12,59,14.00
2018,08,11,13,00,13.90
2018,08,11,13,01,13.90
2018,08,11,13,02,13.90
2018,08,11,13,03,13.80
2018,08,11,13,04,13.80
2018,08,11,13,05,13.70
2018,08,11,13,06,13.60
2018,08,11,13,07,13.50
2018,08,11,13,08,13.50
2018,08,11,13,09,13.50
2018,08,11,13,10,13.60
2018,08,11,13,11,13.70
2018,08,11,13,12,13.70
2018,08,11,13,13,13.60
2018,08,11,13,14,13.50
2018,08,11,13,15,13.50
2018,08,11,13,16,13.60
2018,08,11,13,17,13.60
2018,08,11,13,18,13.70
2018,08,11,13,19,13.60
2018,08,11,13,20,13.70
2018,08,11,13,21,13.70
2018,08,11,13,22,13.80
2018,08,11,13,23,13.90
2018,08,11,13,24,14.10
2018,08,11,13,25,14.30
2018,08,11,13,26,14.40
2018,08,11,13,27,14.40
2018,08,11,13,28,14.20
2018,08,11,13,29,14.10
2018,08,11,13,30,14.00
2018,08,11,13,31,13.90
2018,08,11,13,32,13.90
2018,08,11,13,33,13.90
2018,08,11,13,34,13.90
2018,08,11,13,35,14.10
2018,08,11,13,36,14.30
2018,08,11,13,37,14.50
2018,08,11,13,38,14.60
2018,08,11,13,39,14.70
2018,08,11,13,40,14.70
2018,08,11,13,41,14.70
2018,08,11,13,42,14.60
2018,08,11,13,43,14.70
2018,08,11,13,44,14.60
2018,08,11,13,45,14.50
2018,08,11,13,46,14.50
2018,08,11,13,47,14.40
2018,08,11,13,48,14.40
2018,08,11,13,49,14.30
2018,08,11,13,50,14.30
2018,08,11,13,51,14.30
2018,08,11,13,52,14.40
2018,08,11,13,53,14.40
2018,08,11,13,54,14.40
2018,08,11,13,55,14.40
2018,08,11,13,56,14.70
2018,08,11,13,57,15.00
2018,08,11,13,58,15.30
2018,08,11,13,59,15.50
2018,08,11,14,00,15.70
2018,08,11,14,01,15.80
2018,08,11,14,02,16.00
2018,08,11,14,03,16.10
2018,08,11,14,04,16.20
2018,08,11,14,05,16.20
2018,08,11,14,06,16.30
2018,08,11,14,07,16.30
2018,08,11,14,08,16.40
2018,08,11,14,09,16.40
2018,08,11,14,10,16.40
2018,08,11,14,11,16.40
2018,08,11,14,12,16.50
2018,08,11,14,13,16.50
2018,08,11,14,14,16.50
2018,08,11,14,15,16.60
2018,08,11,14,16,16.60
2018,08,11,14,17,16.60
2018,08,11,14,18,16.70
2018,08,11,14,19,16.70
2018,08,11,14,20,16.70
2018,08,11,14,21,16.70
2018,08,11,14,22,16.70
2018,08,11,14,23,16.70
2018,08,11,14,24,16.70
2018,08,11,14,25,16.70
2018,08,11,14,26,16.70
2018,08,11,14,27,16.70
2018,08,11,14,28,16.70
2018,08,11,14,29,16.70
2018,08,11,14,30,16.70
2018,08,11,14,31,16.70
2018,08,11,14,32,16.70
2018,08,11,14,33,16.60
2018,08,11,14,34,16.50
2018,08,11,14,35,16.50
2018,08,11,14,36,16.50
2018,08,11,14,37,16.60
2018,08,11,14,38,16.60
2018,08,11,14,39,16.60
2018,08,11,14,40,16.60
2018,08,11,14,41,16.60
2018,08,11,14,42,16.60
2018,08,11,14,43,16.50
2018,08,11,14,44,16.40
2018,08,11,14,45,16.30
2018,08,11,14,46,16.20
2018,08,11,14,47,16.20
2018,08,11,14,48,16.20
2018,08,11,14,49,16.20
2018,08,11,14,50,16.30
2018,08,11,14,51,16.30
2018,08,11,14,52,16.40
2018,08,11,14,53,16.40
2018,08,11,14,54,16.50
2018,08,11,14,55,16.10
2018,08,11,14,56,15.90
2018,08,11,14,57,15.80
2018,08,11,14,58,15.80
2018,08,11,14,59,15.80
2018,08,11,15,00,15.80
2018,08,11,15,01,15.90
2018,08,11,15,02,16.00
2018,08,11,15,03,16.10
2018,08,11,15,04,16.10
2018,08,11,15,05,16.20
2018,08,11,15,06,16.30
2018,08,11,15,07,16.30
2018,08,11,15,08,16.00
2018,08,11,15,09,15.60
2018,08,11,15,10,15.30
2018,08,11,15,11,15.50
2018,08,11,15,12,15.90
2018,08,11,15,13,16.20
2018,08,11,15,14,16.40
2018,08,11,15,15,16.50
2018,08,11,15,16,16.50
2018,08,11,15,17,16.60
2018,08,11,15,18,16.70
2018,08,11,15,19,16.80
2018,08,11,15,20,16.80
2018,08,11,15,21,16.90
2018,08,11,15,22,16.90
2018,08,11,15,23,16.90
2018,08,11,15,24,17.00
2018,08,11,15,25,16.90
2018,08,11,15,26,16.90
2018,08,11,15,27,16.80
2018,08,11,15,28,16.80
2018,08,11,15,29,16.80
2018,08,11,15,30,16.80
2018,08,11,15,31,16.80
2018,08,11,15,32,16.90
2018,08,11,15,33,16.90
2018,08,11,15,34,16.90
2018,08,11,15,35,16.90
2018,08,11,15,36,17.00
2018,08,11,15,37,17.00
2018,08,11,15,38,17.00
2018,08,11,15,39,17.00
2018,08,11,15,40,17.00
2018,08,11,15,41,17.00
2018,08,11,15,42,17.00
2018,08,11,15,43,17.00
2018,08,11,15,44,17.00
2018,08,11,15,45,17.10
2018,08,11,15,46,17.10
2018,08,11,15,47,17.20
2018,08,11,15,48,17.30
2018,08,11,15,49,17.30
2018,08,11,15,50,17.20
2018,08,11,15,51,17.10
2018,08,11,15,52,17.10
2018,08,11,15,53,17.10
2018,08,11,15,54,17.10
2018,08,11,15,55,17.10
2018,08,11,15,56,17.10
2018,08,11,15,57,17.00
2018,08,11,15,58,16.80
2018,08,11,15,59,16.90
2018,08,11,16,00,17.00
2018,08,11,16,01,17.00
2018,08,11,16,02,17.10
2018,08,11,16,03,17.10
2018,08,11,16,04,17.10
2018,08,11,16,05,17.00
2018,08,11,16,06,17.00
2018,08,11,16,07,17.00
2018,08,11,16,08,16.90
2018,08,11,16,09,16.90
2018,08,11,16,10,16.80
2018,08,11,16,11,16.80
2018,08,11,16,12,16.80
2018,08,11,16,13,16.80
2018,08,11,16,14,16.80
2018,08,11,16,15,16.80
2018,08,11,16,16,16.80
2018,08,11,16,17,16.80
2018,08,11,16,18,16.80
2018,08,11,16,19,16.80
2018,08,11,16,20,16.80
2018,08,11,16,21,16.80
2018,08,11,16,22,16.80
2018,08,11,16,23,16.80
2018,08,11,16,24,16.70
2018,08,11,16,25,16.70
2018,08,11,16,26,16.70
2018,08,11,16,27,16.70
2018,08,11,16,28,16.70
2018,08,11,16,29,16.60
2018,08,11,16,30,16.60
2018,08,11,16,31,16.50
2018,08,11,16,32,16.50
2018,08,11,16,33,16.40
2018,08,11,16,34,16.40
2018,08,11,16,35,16.40
2018,08,11,16,36,16.40
2018,08,11,16,37,16.40
2018,08,11,16,38,16.30
2018,08,11,16,39,16.30
2018,08,11,16,40,16.30
2018,08,11,16,41,16.30
2018,08,11,16,42,16.30
2018,08,11,16,43,16.30
2018,08,11,16,44,16.30
2018,08,11,16,45,16.20
2018,08,11,16,46,16.20
2018,08,11,16,47,16.10
2018,08,11,16,48,16.10
2018,08,11,16,49,16.00
2018,08,11,16,50,16.00
2018,08,11,16,51,15.90
2018,08,11,16,52,15.80
2018,08,11,16,53,15.70
2018,08,11,16,54,15.50
2018,08,11,16,55,15.50
2018,08,11,16,56,15.50
2018,08,11,16,57,15.50
2018,08,11,16,58,15.70
2018,08,11,16,59,15.80
2018,08,11,17,00,15.80
2018,08,11,17,01,15.90
2018,08,11,17,02,15.80
2018,08,11,17,03,15.80
2018,08,11,17,04,15.80
2018,08,11,17,05,15.80
2018,08,11,17,06,15.70
2018,08,11,17,07,15.70
2018,08,11,17,08,15.60
2018,08,11,17,09,15.60
2018,08,11,17,10,15.60
2018,08,11,17,11,15.70
2018,08,11,17,12,15.60
2018,08,11,17,13,15.60
2018,08,11,17,14,15.60
2018,08,11,17,15,15.60
2018,08,11,17,16,15.50
2018,08,11,17,17,15.30
2018,08,11,17,18,15.20
2018,08,11,17,19,15.10